User: anonymous
Location: Unspecified
(0.0000°N, 0.0000°E)
Time: 07:39:31
(UTC+00:00)
Language:

APRIZESAT 3 - Orbit

View from above orbital plane
View from above orbital plane
View from above satellite
View from above satellite

Ground track
Ground track

The orbit data is extracted from the following two-line orbital elements,

1 35686U 09041F   14202.84959075  .00000113  00000-0  19613-4 0  5735
2 35686 098.1499 150.0931 0075087 222.7299 193.8000 14.85267666269525
Epoch (UTC): 21 July 2014 20:23:24
Eccentricity: 0.0075087
inclination: 98.1499°
perigee height: 560 km
apogee height: 665 km
right ascension of ascending node: 150.0931°
argument of perigee: 222.7299°
revolutions per day: 14.85267666
mean anomaly at epoch: 193.8000°
orbit number at epoch: 26952

The dashed part of the orbit path shows where the satellite is in the earth's shadow,  

DLR